Location: Juzet
(42.9779°N, 0.7597°E)
Time: 03:02:48
(UTC+00:00)

Cosmos 1607 - Pass Details

Date: 14 July 2020
Orbit: 913 x 989 km, 65.0° (Epoch: 04 August)

Event Time Altitude Azimuth Distance (km) Brightness Sun altitude
Exits shadow 00:20:04 32° 250° (WSW) 1,568 4.8 -25.3°
Maximum altitude 00:22:45 53° 310° (NW) 1,156 4.5 -25.2°
Drops below altitude 10° 00:28:55 10° 27° (NNE) 2,705 7.2 -25.1°
Sets 00:31:36 0° 32° (NNE) 3,666 8.1 -25.1°
